Location: Unspecified
(44.0704°N, 88.6889°W)
Time: 02:39:36
(UTC+01:00)

ISS - Visible Passes

Search period start: 26 February 2018 00:00
Search period end: 08 March 2018 00:00
Orbit: 403 x 406 km, 51.6° (Epoch: 26 February)

Date Brightness Start Highest point End Pass type
(mag) Time Alt. Az. Time Alt. Az. Time Alt. Az.
26 Feb -1.2 12:33:20 10° S 12:35:47 20° SE 12:38:15 10° E visible
27 Feb -0.7 11:42:53 10° SSE 11:43:47 11° SE 11:44:41 10° ESE visible
28 Feb -2.8 12:24:34 11° SW 12:27:34 43° SE 12:30:42 10° ENE visible
01 Mar -1.9 11:34:51 23° SSE 11:35:26 24° SE 11:38:09 10° E visible
02 Mar -0.4 10:44:59 10° ESE 10:44:59 10° ESE 10:45:05 10° E visible
02 Mar -3.9 12:17:39 25° WSW 12:19:25 84° NNW 12:22:42 10° ENE visible
03 Mar -2.9 11:27:39 48° ESE 11:27:39 48° ESE 11:30:23 10° ENE visible
04 Mar -0.4 10:37:32 12° E 10:37:32 12° E 10:37:53 10° ENE visible
04 Mar -3.3 12:10:12 30° WNW 12:11:21 44° NNW 12:14:31 10° NE visible
05 Mar -2.6 11:20:00 40° NE 11:20:00 40° NE 11:22:16 10° NE visible
05 Mar -2.2 12:53:08 10° WNW 12:55:52 24° N 12:58:35 10° NE visible
06 Mar -0.3 10:29:44 11° ENE 10:29:44 11° ENE 10:29:55 10° ENE visible
06 Mar -2.5 12:02:23 24° NW 12:03:21 28° NNW 12:06:16 10° NE visible
07 Mar -2.0 11:12:04 27° NNE 11:12:04 27° NNE 11:13:58 10° NE visible
07 Mar -1.9 12:45:22 10° NW 12:47:58 21° N 12:50:33 10° NE visible
